Time,TemperatureF,DewpointF,PressureIn,WindDirection,WindDirectionDegrees,WindSpeedMPH,WindSpeedGustMPH,Humidity,HourlyPrecipIn,Conditions,Clouds,dailyrainin,SoftwareType,DateUTC
2013-06-06 00:05:00,53.3,51.0,29.94,NNE,18,2.0,2.0,92,0.00,,,0.00,Wunderground v.1.15,2013-06-06 05:05:00,
2013-06-06 00:10:00,53.2,50.9,29.94,NNE,28,3.0,4.0,92,0.00,,,0.00,Wunderground v.1.15,2013-06-06 05:10:00,
2013-06-06 00:15:00,52.9,50.6,29.94,North,4,5.0,8.0,92,0.00,,,0.00,Wunderground v.1.15,2013-06-06 05:15:00,
2013-06-06 00:25:00,52.6,50.3,29.94,North,8,5.0,6.0,92,0.00,,,0.00,Wunderground v.1.15,2013-06-06 05:25:00,
2013-06-06 00:30:00,52.3,50.3,29.94,NE,40,5.0,5.0,93,0.00,,,0.00,Wunderground v.1.15,2013-06-06 05:30:00,
2013-06-06 00:40:00,52.2,50.2,29.94,North,0,4.0,6.0,93,0.00,,,0.00,Wunderground v.1.15,2013-06-06 05:40:00,
2013-06-06 00:50:00,51.9,50.2,29.94,North,1,4.0,4.0,94,0.00,,,0.00,Wunderground v.1.15,2013-06-06 05:50:00,
2013-06-06 00:55:00,51.9,50.2,29.94,NNE,14,4.0,4.0,94,0.00,,,0.00,Wunderground v.1.15,2013-06-06 05:55:00,
2013-06-06 01:01:00,51.7,50.0,29.94,NNW,347,3.0,3.0,94,0.00,,,0.00,Wunderground v.1.15,2013-06-06 06:01:00,
2013-06-06 01:10:00,51.6,49.9,29.94,North,6,4.0,4.0,94,0.00,,,0.00,Wunderground v.1.15,2013-06-06 06:10:00,
2013-06-06 01:15:00,51.4,49.7,29.94,NNE,13,5.0,6.0,94,0.00,,,0.00,Wunderground v.1.15,2013-06-06 06:15:00,
2013-06-06 01:25:00,51.0,49.3,29.94,North,7,5.0,7.0,94,0.00,,,0.00,Wunderground v.1.15,2013-06-06 06:25:00,
2013-06-06 01:30:00,50.8,49.1,29.94,NNE,20,6.0,6.0,94,0.00,,,0.00,Wunderground v.1.15,2013-06-06 06:30:00,
2013-06-06 01:35:00,50.5,48.8,29.94,North,11,4.0,6.0,94,0.00,,,0.00,Wunderground v.1.15,2013-06-06 06:35:00,
2013-06-06 01:40:00,50.5,48.8,29.94,NNE,17,3.0,4.0,94,0.00,,,0.00,Wunderground v.1.15,2013-06-06 06:40:00,
2013-06-06 01:50:00,50.2,48.5,29.95,North,6,5.0,5.0,94,0.00,,,0.00,Wunderground v.1.15,2013-06-06 06:50:00,
2013-06-06 02:00:00,50.2,48.8,29.95,NNE,30,2.0,4.0,95,0.00,,,0.00,Wunderground v.1.15,2013-06-06 07:00:00,
2013-06-06 02:10:00,50.1,48.7,29.95,NNE,31,2.0,2.0,95,0.00,,,0.00,Wunderground v.1.15,2013-06-06 07:10:00,
2013-06-06 02:20:00,49.9,48.5,29.95,North,7,1.0,1.0,95,0.00,,,0.00,Wunderground v.1.15,2013-06-06 07:20:00,
2013-06-06 02:25:00,49.9,48.5,29.95,North,11,2.0,4.0,95,0.00,,,0.00,Wunderground v.1.15,2013-06-06 07:25:00,
2013-06-06 02:30:00,49.9,48.5,29.95,NNE,24,3.0,4.0,95,0.00,,,0.00,Wunderground v.1.15,2013-06-06 07:30:00,
2013-06-06 02:40:00,49.9,48.5,29.95,NNE,16,1.0,1.0,95,0.00,,,0.00,Wunderground v.1.15,2013-06-06 07:40:00,
2013-06-06 02:45:00,49.9,48.8,29.95,North,6,1.0,1.0,96,0.00,,,0.00,Wunderground v.1.15,2013-06-06 07:45:00,
2013-06-06 02:55:00,49.9,48.8,29.95,NE,55,0.0,2.0,96,0.00,,,0.00,Wunderground v.1.15,2013-06-06 07:55:00,
2013-06-06 03:05:00,49.8,48.7,29.95,ENE,62,1.0,1.0,96,0.00,,,0.00,Wunderground v.1.15,2013-06-06 08:05:00,
2013-06-06 03:10:00,49.6,48.2,29.95,NNE,28,1.0,2.0,95,0.00,,,0.00,Wunderground v.1.15,2013-06-06 08:10:00,
2013-06-06 03:15:00,49.6,48.2,29.94,North,11,3.0,3.0,95,0.00,,,0.00,Wunderground v.1.15,2013-06-06 08:15:00,
2013-06-06 03:25:00,49.8,48.4,29.94,North,11,1.0,4.0,95,0.00,,,0.00,Wunderground v.1.15,2013-06-06 08:25:00,
2013-06-06 03:35:00,49.6,48.2,29.94,North,3,4.0,4.0,95,0.00,,,0.00,Wunderground v.1.15,2013-06-06 08:35:00,
2013-06-06 03:40:00,49.6,47.9,29.94,NNE,20,4.0,4.0,94,0.00,,,0.00,Wunderground v.1.15,2013-06-06 08:40:00,
2013-06-06 03:50:00,49.6,47.9,29.94,NNE,23,1.0,1.0,94,0.00,,,0.00,Wunderground v.1.15,2013-06-06 08:50:00,
2013-06-06 04:00:00,49.8,48.1,29.94,NNE,23,1.0,1.0,94,0.00,,,0.00,Wunderground v.1.15,2013-06-06 09:00:00,
2013-06-06 04:10:00,49.9,48.2,29.94,North,11,1.0,6.0,94,0.00,,,0.00,Wunderground v.1.15,2013-06-06 09:10:00,
2013-06-06 04:20:00,49.9,48.2,29.93,North,3,3.0,8.0,94,0.00,,,0.00,Wunderground v.1.15,2013-06-06 09:20:00,
2013-06-06 04:25:00,49.8,48.1,29.93,NNE,16,5.0,8.0,94,0.00,,,0.00,Wunderground v.1.15,2013-06-06 09:25:00,
2013-06-06 04:30:00,49.8,48.1,29.94,NNE,13,4.0,6.0,94,0.00,,,0.00,Wunderground v.1.15,2013-06-06 09:30:00,
2013-06-06 04:40:00,49.8,48.1,29.94,North,0,3.0,6.0,94,0.00,,,0.00,Wunderground v.1.15,2013-06-06 09:40:00,
2013-06-06 04:45:00,49.6,47.9,29.94,NNE,24,4.0,6.0,94,0.00,,,0.00,Wunderground v.1.15,2013-06-06 09:45:00,
2013-06-06 04:55:00,49.6,48.2,29.94,NE,41,2.0,4.0,95,0.00,,,0.00,Wunderground v.1.15,2013-06-06 09:55:00,
2013-06-06 05:05:00,49.6,48.2,29.94,NE,42,3.0,4.0,95,0.00,,,0.00,Wunderground v.1.15,2013-06-06 10:05:00,
2013-06-06 05:10:00,49.5,48.1,29.94,North,11,4.0,7.0,95,0.00,,,0.00,Wunderground v.1.15,2013-06-06 10:10:00,
2013-06-06 05:15:00,49.5,48.1,29.94,North,8,5.0,7.0,95,0.00,,,0.00,Wunderground v.1.15,2013-06-06 10:15:00,
2013-06-06 05:25:00,49.4,48.3,29.94,North,0,6.0,6.0,96,0.00,,,0.00,Wunderground v.1.15,2013-06-06 10:25:00,
2013-06-06 05:35:00,49.5,48.4,29.95,North,6,4.0,6.0,96,0.00,,,0.00,Wunderground v.1.15,2013-06-06 10:35:00,
2013-06-06 05:40:00,49.5,48.4,29.95,NNE,14,4.0,4.0,96,0.00,,,0.00,Wunderground v.1.15,2013-06-06 10:40:00,
2013-06-06 05:50:00,49.5,48.4,29.95,North,11,3.0,3.0,96,0.00,,,0.00,Wunderground v.1.15,2013-06-06 10:50:00,
2013-06-06 06:00:00,49.5,48.7,29.95,North,3,3.0,7.0,97,0.00,,,0.00,Wunderground v.1.15,2013-06-06 11:00:00,
2013-06-06 06:10:00,49.5,48.7,29.95,North,357,3.0,6.0,97,0.00,,,0.00,Wunderground v.1.15,2013-06-06 11:10:00,
2013-06-06 06:20:00,49.4,48.6,29.95,North,4,5.0,5.0,97,0.00,,,0.00,Wunderground v.1.15,2013-06-06 11:20:00,
2013-06-06 06:30:00,49.4,48.6,29.96,NNE,21,4.0,4.0,97,0.00,,,0.00,Wunderground v.1.15,2013-06-06 11:30:00,
2013-06-06 06:40:00,49.4,48.9,29.96,North,3,1.0,8.0,98,0.00,,,0.00,Wunderground v.1.15,2013-06-06 11:40:00,
2013-06-06 06:45:00,49.4,48.9,29.96,North,6,3.0,8.0,98,0.00,,,0.00,Wunderground v.1.15,2013-06-06 11:45:00,
2013-06-06 06:55:00,49.4,48.9,29.96,NNE,32,2.0,4.0,98,0.00,,,0.00,Wunderground v.1.15,2013-06-06 11:55:00,
2013-06-06 07:00:00,49.4,48.9,29.96,North,7,3.0,7.0,98,0.00,,,0.00,Wunderground v.1.15,2013-06-06 12:00:00,
2013-06-06 07:10:00,49.5,49.0,29.96,NNE,25,3.0,4.0,98,0.00,,,0.00,Wunderground v.1.15,2013-06-06 12:10:00,
2013-06-06 07:15:00,49.5,49.0,29.96,North,7,3.0,4.0,98,0.00,,,0.00,Wunderground v.1.15,2013-06-06 12:15:00,
2013-06-06 07:25:00,49.6,48.8,29.96,North,1,4.0,4.0,97,0.00,,,0.00,Wunderground v.1.15,2013-06-06 12:25:00,
2013-06-06 07:35:00,49.6,48.8,29.96,North,10,4.0,7.0,97,0.00,,,0.00,Wunderground v.1.15,2013-06-06 12:35:00,
2013-06-06 07:45:00,49.6,48.5,29.96,NNE,21,5.0,8.0,96,0.00,,,0.00,Wunderground v.1.15,2013-06-06 12:45:00,
2013-06-06 07:55:00,49.6,48.5,29.96,NNE,17,6.0,8.0,96,0.00,,,0.00,Wunderground v.1.15,2013-06-06 12:55:00,
2013-06-06 08:00:00,49.6,48.2,29.96,NNE,16,6.0,6.0,95,0.00,,,0.00,Wunderground v.1.15,2013-06-06 13:00:00,
2013-06-06 08:10:00,49.8,48.1,29.96,North,6,4.0,4.0,94,0.00,,,0.00,Wunderground v.1.15,2013-06-06 13:10:00,
2013-06-06 08:15:00,49.9,48.2,29.96,North,7,3.0,9.0,94,0.00,,,0.00,Wunderground v.1.15,2013-06-06 13:15:00,
2013-06-06 08:25:00,49.9,48.0,29.96,NNE,16,5.0,5.0,93,0.00,,,0.00,Wunderground v.1.15,2013-06-06 13:25:00,
2013-06-06 08:30:00,50.1,47.9,29.97,NNE,17,4.0,4.0,92,0.00,,,0.00,Wunderground v.1.15,2013-06-06 13:30:00,
2013-06-06 08:40:00,50.1,47.9,29.97,NNE,16,3.0,3.0,92,0.00,,,0.00,Wunderground v.1.15,2013-06-06 13:40:00,
2013-06-06 08:50:00,50.2,48.0,29.97,North,11,1.0,2.0,92,0.00,,,0.00,Wunderground v.1.15,2013-06-06 13:50:00,
2013-06-06 08:55:00,50.4,47.9,29.97,NNE,18,1.0,2.0,91,0.00,,,0.00,Wunderground v.1.15,2013-06-06 13:55:00,
2013-06-06 09:00:00,50.5,48.0,29.97,NNE,16,1.0,1.0,91,0.00,,,0.00,Wunderground v.1.15,2013-06-06 14:00:00,
2013-06-06 09:10:00,50.8,48.0,29.97,NE,34,1.0,2.0,90,0.00,,,0.00,Wunderground v.1.15,2013-06-06 14:10:00,
2013-06-06 09:20:00,51.1,48.3,29.97,NNE,24,1.0,2.0,90,0.00,,,0.00,Wunderground v.1.15,2013-06-06 14:20:00,
2013-06-06 09:25:00,51.3,48.2,29.97,NNE,28,1.0,2.0,89,0.00,,,0.00,Wunderground v.1.15,2013-06-06 14:25:00,
2013-06-06 09:35:00,51.3,47.9,29.97,NNE,18,1.0,4.0,88,0.00,,,0.00,Wunderground v.1.15,2013-06-06 14:35:00,
2013-06-06 09:45:00,51.4,48.0,29.97,North,3,4.0,4.0,88,0.00,,,0.00,Wunderground v.1.15,2013-06-06 14:45:00,
2013-06-06 09:55:00,51.6,47.9,29.97,North,0,3.0,6.0,87,0.00,,,0.00,Wunderground v.1.15,2013-06-06 14:55:00,
2013-06-06 10:05:00,51.6,47.9,29.98,NNE,24,4.0,6.0,87,0.00,,,0.00,Wunderground v.1.15,2013-06-06 15:05:00,
2013-06-06 10:15:00,51.6,47.9,29.98,NNE,23,3.0,3.0,87,0.00,,,0.00,Wunderground v.1.15,2013-06-06 15:15:00,
2013-06-06 10:25:00,51.9,48.2,29.98,North,11,3.0,4.0,87,0.00,,,0.00,Wunderground v.1.15,2013-06-06 15:25:00,
2013-06-06 10:30:00,51.7,48.0,29.98,North,3,5.0,5.0,87,0.00,,,0.00,Wunderground v.1.15,2013-06-06 15:30:00,
2013-06-06 10:40:00,51.7,48.0,29.98,North,7,5.0,5.0,87,0.00,,,0.00,Wunderground v.1.15,2013-06-06 15:40:00,
2013-06-06 10:50:00,52.0,48.3,29.98,NNE,20,3.0,7.0,87,0.00,,,0.00,Wunderground v.1.15,2013-06-06 15:50:00,
2013-06-06 11:00:00,52.2,48.1,29.98,NNE,13,4.0,6.0,86,0.00,,,0.00,Wunderground v.1.15,2013-06-06 16:00:00,
2013-06-06 11:10:00,52.5,48.4,29.98,NNE,13,4.0,4.0,86,0.00,,,0.00,Wunderground v.1.15,2013-06-06 16:10:00,
2013-06-06 11:20:00,52.9,48.8,29.98,NE,55,2.0,2.0,86,0.00,,,0.00,Wunderground v.1.15,2013-06-06 16:20:00,
2013-06-06 11:30:00,53.2,48.5,29.98,NNE,21,2.0,2.0,84,0.00,,,0.00,Wunderground v.1.15,2013-06-06 16:30:00,
2013-06-06 11:40:00,53.5,48.8,29.98,East,90,1.0,1.0,84,0.00,,,0.00,Wunderground v.1.15,2013-06-06 16:40:00,
2013-06-06 11:45:00,53.5,48.8,29.98,ENE,75,1.0,1.0,84,0.00,,,0.00,Wunderground v.1.15,2013-06-06 16:45:00,
2013-06-06 11:55:00,53.3,48.6,29.98,NNE,31,2.0,6.0,84,0.00,,,0.00,Wunderground v.1.15,2013-06-06 16:55:00,
2013-06-06 12:00:00,53.3,48.6,29.98,North,6,1.0,1.0,84,0.00,,,0.00,Wunderground v.1.15,2013-06-06 17:00:00,
2013-06-06 12:10:00,53.2,48.5,29.98,NE,34,2.0,2.0,84,0.00,,,0.00,Wunderground v.1.15,2013-06-06 17:10:00,
2013-06-06 12:15:00,53.3,48.9,29.99,North,7,1.0,2.0,85,0.00,,,0.00,Wunderground v.1.15,2013-06-06 17:15:00,
2013-06-06 12:25:00,54.1,49.4,29.99,East,80,1.0,6.0,84,0.00,,,0.00,Wunderground v.1.15,2013-06-06 17:25:00,
2013-06-06 12:35:00,53.8,49.1,29.98,NNE,13,2.0,6.0,84,0.00,,,0.00,Wunderground v.1.15,2013-06-06 17:35:00,
2013-06-06 12:40:00,53.6,48.9,29.98,NE,37,2.0,2.0,84,0.00,,,0.00,Wunderground v.1.15,2013-06-06 17:40:00,
2013-06-06 12:45:00,53.5,48.8,29.99,NNE,28,2.0,2.0,84,0.00,,,0.00,Wunderground v.1.15,2013-06-06 17:45:00,
2013-06-06 12:55:00,53.2,48.8,29.99,NNE,17,5.0,9.0,85,0.00,,,0.00,Wunderground v.1.15,2013-06-06 17:55:00,
2013-06-06 13:05:00,53.3,48.9,29.99,North,8,5.0,6.0,85,0.00,,,0.00,Wunderground v.1.15,2013-06-06 18:05:00,
2013-06-06 13:10:00,53.2,49.1,29.99,North,7,6.0,6.0,86,0.00,,,0.00,Wunderground v.1.15,2013-06-06 18:10:00,
2013-06-06 13:20:00,53.5,49.1,29.99,NE,51,3.0,3.0,85,0.00,,,0.00,Wunderground v.1.15,2013-06-06 18:20:00,
2013-06-06 13:30:00,53.9,49.2,29.99,NNE,20,2.0,4.0,84,0.00,,,0.00,Wunderground v.1.15,2013-06-06 18:30:00,
2013-06-06 13:40:00,54.1,49.4,29.99,North,8,4.0,4.0,84,0.00,,,0.00,Wunderground v.1.15,2013-06-06 18:40:00,
2013-06-06 13:50:00,55.4,50.0,29.98,NE,40,0.0,0.0,82,0.00,,,0.00,Wunderground v.1.15,2013-06-06 18:50:00,
2013-06-06 14:00:00,55.3,49.2,29.98,NNE,18,4.0,4.0,80,0.00,,,0.00,Wunderground v.1.15,2013-06-06 19:00:00,
2013-06-06 14:10:00,56.3,49.5,29.98,ESE,103,1.0,1.0,78,0.00,,,0.00,Wunderground v.1.15,2013-06-06 19:10:00,
2013-06-06 14:15:00,56.5,49.4,29.98,East,79,0.0,1.0,77,0.00,,,0.00,Wunderground v.1.15,2013-06-06 19:15:00,
2013-06-06 14:25:00,56.2,49.4,29.98,North,4,3.0,6.0,78,0.00,,,0.00,Wunderground v.1.15,2013-06-06 19:25:00,
2013-06-06 14:35:00,55.9,49.5,29.97,NNE,32,4.0,5.0,79,0.00,,,0.00,Wunderground v.1.15,2013-06-06 19:35:00,
2013-06-06 14:40:00,56.2,49.8,29.97,NNE,14,2.0,2.0,79,0.00,,,0.00,Wunderground v.1.15,2013-06-06 19:40:00,
2013-06-06 14:45:00,56.0,49.6,29.97,North,11,4.0,4.0,79,0.00,,,0.00,Wunderground v.1.15,2013-06-06 19:45:00,
2013-06-06 14:55:00,56.0,49.6,29.97,North,7,2.0,7.0,79,0.00,,,0.00,Wunderground v.1.15,2013-06-06 19:55:00,
2013-06-06 15:00:00,56.2,49.8,29.97,NE,54,1.0,1.0,79,0.00,,,0.00,Wunderground v.1.15,2013-06-06 20:00:00,
2013-06-06 15:10:00,56.5,50.1,29.97,NNE,24,2.0,2.0,79,0.00,,,0.00,Wunderground v.1.15,2013-06-06 20:10:00,
2013-06-06 15:20:00,56.3,49.5,29.97,ENE,72,1.0,1.0,78,0.00,,,0.00,Wunderground v.1.15,2013-06-06 20:20:00,
2013-06-06 15:30:00,56.2,49.4,29.97,ENE,66,0.0,0.0,78,0.00,,,0.00,Wunderground v.1.15,2013-06-06 20:30:00,
2013-06-06 15:40:00,56.0,48.9,29.97,NNE,32,1.0,1.0,77,0.00,,,0.00,Wunderground v.1.15,2013-06-06 20:40:00,
2013-06-06 15:50:00,56.3,49.2,29.97,NE,38,1.0,1.0,77,0.00,,,0.00,Wunderground v.1.15,2013-06-06 20:50:00,
2013-06-06 16:00:00,56.5,49.4,29.97,NNE,14,0.0,1.0,77,0.00,,,0.00,Wunderground v.1.15,2013-06-06 21:00:00,
2013-06-06 16:10:00,56.6,48.8,29.97,North,8,2.0,4.0,75,0.00,,,0.00,Wunderground v.1.15,2013-06-06 21:10:00,
2013-06-06 16:15:00,56.7,49.2,29.97,North,359,3.0,7.0,76,0.00,,,0.00,Wunderground v.1.15,2013-06-06 21:15:00,
2013-06-06 16:25:00,56.5,49.7,29.97,NE,49,3.0,3.0,78,0.00,,,0.00,Wunderground v.1.15,2013-06-06 21:25:00,
2013-06-06 16:35:00,56.2,49.4,29.97,NNE,32,1.0,2.0,78,0.00,,,0.00,Wunderground v.1.15,2013-06-06 21:35:00,
2013-06-06 16:45:00,56.2,49.4,29.97,North,0,2.0,6.0,78,0.00,,,0.00,Wunderground v.1.15,2013-06-06 21:45:00,
2013-06-06 16:55:00,56.5,49.4,29.97,NNE,16,4.0,4.0,77,0.00,,,0.00,Wunderground v.1.15,2013-06-06 21:55:00,
2013-06-06 17:00:00,56.6,49.1,29.98,North,8,3.0,7.0,76,0.00,,,0.00,Wunderground v.1.15,2013-06-06 22:00:00,
2013-06-06 17:10:00,56.6,49.1,29.98,North,4,5.0,5.0,76,0.00,,,0.00,Wunderground v.1.15,2013-06-06 22:10:00,
2013-06-06 17:20:00,56.6,49.5,29.98,North,0,5.0,9.0,77,0.00,,,0.00,Wunderground v.1.15,2013-06-06 22:20:00,
2013-06-06 17:25:00,56.5,49.4,29.98,NNE,31,5.0,9.0,77,0.00,,,0.00,Wunderground v.1.15,2013-06-06 22:25:00,
2013-06-06 17:35:00,56.3,49.2,29.98,North,3,2.0,4.0,77,0.00,,,0.00,Wunderground v.1.15,2013-06-06 22:35:00,
2013-06-06 17:45:00,56.2,48.7,29.98,North,11,1.0,8.0,76,0.00,,,0.00,Wunderground v.1.15,2013-06-06 22:45:00,
2013-06-06 17:50:00,56.2,49.1,29.98,North,11,3.0,3.0,77,0.00,,,0.00,Wunderground v.1.15,2013-06-06 22:50:00,
2013-06-06 18:00:00,56.0,48.9,29.98,North,6,2.0,2.0,77,0.00,,,0.00,Wunderground v.1.15,2013-06-06 23:00:00,
2013-06-06 18:10:00,56.0,49.2,29.98,NNE,23,1.0,1.0,78,0.00,,,0.00,Wunderground v.1.15,2013-06-06 23:10:00,
2013-06-06 18:20:00,56.0,48.9,29.98,NNE,25,1.0,2.0,77,0.00,,,0.00,Wunderground v.1.15,2013-06-06 23:20:00,
2013-06-06 18:25:00,56.0,49.2,29.98,NE,41,1.0,4.0,78,0.00,,,0.00,Wunderground v.1.15,2013-06-06 23:25:00,
2013-06-06 18:35:00,56.0,49.6,29.98,East,97,1.0,1.0,79,0.00,,,0.00,Wunderground v.1.15,2013-06-06 23:35:00,
2013-06-06 18:45:00,55.9,49.1,29.98,ENE,64,0.0,4.0,78,0.00,,,0.00,Wunderground v.1.15,2013-06-06 23:45:00,
2013-06-06 18:55:00,55.7,48.9,29.98,NE,55,1.0,4.0,78,0.00,,,0.00,Wunderground v.1.15,2013-06-06 23:55:00,
2013-06-06 19:05:00,55.6,49.2,29.98,ENE,61,0.0,4.0,79,0.00,,,0.00,Wunderground v.1.15,2013-06-07 00:05:00,
2013-06-06 19:15:00,55.4,49.0,29.99,East,80,1.0,1.0,79,0.00,,,0.00,Wunderground v.1.15,2013-06-07 00:15:00,
2013-06-06 19:25:00,55.4,49.3,29.99,North,11,0.0,0.0,80,0.00,,,0.00,Wunderground v.1.15,2013-06-07 00:25:00,
2013-06-06 19:30:00,55.4,49.3,29.99,NNE,17,0.0,0.0,80,0.00,,,0.00,Wunderground v.1.15,2013-06-07 00:30:00,
2013-06-06 19:40:00,55.1,48.7,29.99,NNE,24,1.0,4.0,79,0.00,,,0.00,Wunderground v.1.15,2013-06-07 00:40:00,
2013-06-06 19:45:00,55.1,48.7,29.99,ESE,106,1.0,4.0,79,0.00,,,0.00,Wunderground v.1.15,2013-06-07 00:45:00,
2013-06-06 19:55:00,55.0,48.9,29.99,NE,41,1.0,1.0,80,0.00,,,0.00,Wunderground v.1.15,2013-06-07 00:55:00,
2013-06-06 20:00:00,54.8,48.7,29.99,NNE,32,1.0,1.0,80,0.00,,,0.00,Wunderground v.1.15,2013-06-07 01:00:00,
2013-06-06 20:10:00,54.8,49.1,29.99,ENE,68,0.0,0.0,81,0.00,,,0.00,Wunderground v.1.15,2013-06-07 01:10:00,
2013-06-06 20:20:00,54.7,49.3,29.99,NE,45,0.0,0.0,82,0.00,,,0.00,Wunderground v.1.15,2013-06-07 01:20:00,
2013-06-06 20:25:00,54.5,49.1,29.99,NE,48,0.0,0.0,82,0.00,,,0.00,Wunderground v.1.15,2013-06-07 01:25:00,
2013-06-06 20:35:00,54.4,49.0,29.99,NNE,24,0.0,1.0,82,0.00,,,0.00,Wunderground v.1.15,2013-06-07 01:35:00,
2013-06-06 20:45:00,54.2,48.8,30.00,NNE,31,0.0,0.0,82,0.00,,,0.00,Wunderground v.1.15,2013-06-07 01:45:00,
2013-06-06 20:55:00,54.1,49.1,30.00,NNE,17,1.0,1.0,83,0.00,,,0.00,Wunderground v.1.15,2013-06-07 01:55:00,
2013-06-06 21:05:00,53.9,48.9,30.00,NNE,16,0.0,1.0,83,0.00,,,0.00,Wunderground v.1.15,2013-06-07 02:05:00,
2013-06-06 21:10:00,53.9,48.9,30.00,NNE,16,0.0,0.0,83,0.00,,,0.00,Wunderground v.1.15,2013-06-07 02:10:00,
2013-06-06 21:20:00,53.8,48.8,30.00,NNE,16,0.0,0.0,83,0.00,,,0.00,Wunderground v.1.15,2013-06-07 02:20:00,
2013-06-06 21:30:00,53.8,48.8,30.00,NNE,16,0.0,0.0,83,0.00,,,0.00,Wunderground v.1.15,2013-06-07 02:30:00,
2013-06-06 21:40:00,53.6,48.6,30.00,NNE,25,0.0,0.0,83,0.00,,,0.00,Wunderground v.1.15,2013-06-07 02:40:00,
2013-06-06 21:50:00,53.5,48.8,30.00,NNE,25,0.0,0.0,84,0.00,,,0.00,Wunderground v.1.15,2013-06-07 02:50:00,
2013-06-06 22:00:00,53.2,48.5,30.00,NNE,25,0.0,0.0,84,0.00,,,0.00,Wunderground v.1.15,2013-06-07 03:00:00,
2013-06-06 22:10:00,52.9,48.5,30.00,NNE,23,0.0,0.0,85,0.00,,,0.00,Wunderground v.1.15,2013-06-07 03:10:00,
2013-06-06 22:15:00,52.6,48.5,30.00,NNE,23,0.0,0.0,86,0.00,,,0.00,Wunderground v.1.15,2013-06-07 03:15:00,
2013-06-06 22:25:00,52.3,48.2,30.00,NNE,23,0.0,0.0,86,0.00,,,0.00,Wunderground v.1.15,2013-06-07 03:25:00,
2013-06-06 22:35:00,52.0,48.3,30.00,NNE,23,0.0,0.0,87,0.00,,,0.00,Wunderground v.1.15,2013-06-07 03:35:00,
2013-06-06 22:45:00,51.7,48.3,30.00,NNE,23,0.0,0.0,88,0.00,,,0.00,Wunderground v.1.15,2013-06-07 03:45:00,
2013-06-06 22:55:00,51.4,48.3,30.00,NNE,23,0.0,0.0,89,0.00,,,0.00,Wunderground v.1.15,2013-06-07 03:55:00,
2013-06-06 23:05:00,51.6,48.5,30.01,NNE,23,0.0,0.0,89,0.00,,,0.00,Wunderground v.1.15,2013-06-07 04:05:00,
2013-06-06 23:10:00,51.4,48.3,30.01,NNE,23,0.0,0.0,89,0.00,,,0.00,Wunderground v.1.15,2013-06-07 04:10:00,
2013-06-06 23:20:00,51.6,48.8,30.00,NNE,23,0.0,0.0,90,0.00,,,0.00,Wunderground v.1.15,2013-06-07 04:20:00,
2013-06-06 23:25:00,51.7,48.9,30.00,NNE,23,0.0,0.0,90,0.00,,,0.00,Wunderground v.1.15,2013-06-07 04:25:00,
2013-06-06 23:30:00,51.9,49.1,30.00,NNE,23,0.0,0.0,90,0.00,,,0.00,Wunderground v.1.15,2013-06-07 04:30:00,
2013-06-06 23:40:00,52.2,49.1,30.00,NNE,23,0.0,0.0,89,0.00,,,0.00,Wunderground v.1.15,2013-06-07 04:40:00,
2013-06-06 23:49:00,52.3,49.5,30.00,NNE,23,0.0,0.0,90,0.00,,,0.00,Wunderground v.1.15,2013-06-07 04:49:00,
2013-06-06 23:55:00,52.3,49.5,30.00,NNE,23,0.0,0.0,90,0.00,,,0.00,Wunderground v.1.15,2013-06-07 04:55:00,